Flag Weather past 2 weeks in Cleveland, Ohio, U.S.A.

Now
23 °F

Scattered clouds.


Feels Like: 11 °F
Forecast: 20 / 27 °F
Wind: 13 mph from Southwest

Location: Cleveland-Hopkins International Airport

Current Time: Nov 21, 2014 at 3:56:22 PM

Latest Report: Nov 21, 2014 at 2:51 PM


Visibility: 10 mi

Pressure: 30.54 "Hg

Humidity: 55%

Dew point: 9 °F

Location of ClevelandLocation

Historic Weather in Cleveland — Graph

°F

Cleveland temperature yesterday

Maximum temperature yesterday: 26 °F (at 12:51 AM)
Minimum temperature yesterday: 22 °F (at 6:51 AM)
Average temperature yesterday: 24 °F

Past Weeks' High & Low Weather Summary

 TemperatureHumidityPressure
High66 °F (Nov 11, 1:51 PM)100% (Nov 16, 11:57 PM)30.55 "Hg (Nov 16, 11:57 PM)
Low10 °F (Nov 18, 6:51 AM)35% (Nov 10, 1:51 PM)29.70 "Hg (Nov 17, 12:51 PM)
Average33 °F70%30.06 "Hg
* Reported Nov 6 2:51 PM — Nov 21 2:51 PM, Cleveland, Weather by CustomWeather, © 2014

Note: Actual official high and low records may vary slightly from our data, if they occured in-between our weather recording intervals... More about our weather records

Advertising

Cleveland weather history for previous 24 hours

 ConditionsComfort  
Time TempWeatherWind HumidityBarometerVisibility
2:51 PM
Nov 21
23 °FScattered clouds.13 mph55%30.54 "Hg10 mi
1:51 PM24 °FPartly sunny.8 mph55%30.54 "Hg10 mi
12:51 PM22 °FLight snow. Mostly cloudy.9 mph75%30.55 "Hg4 mi
11:51 AM22 °FLight snow. Overcast.9 mph75%30.54 "Hg6 mi
10:51 AM21 °FLight snow. Overcast.9 mph74%30.53 "Hg8 mi
9:51 AM20 °FOvercast.9 mph74%30.50 "Hg10 mi
8:51 AM20 °FLight snow. Overcast.7 mph71%30.49 "Hg10 mi
7:51 AM21 °FOvercast.9 mph57%30.45 "Hg10 mi
6:51 AM21 °FLight snow. Overcast.13 mph60%30.41 "Hg9 mi
5:51 AM20 °FLight snow. Overcast.9 mph82%30.37 "Hg8 mi
4:51 AM19 °FLight snow. Overcast.10 mph88%30.34 "Hg6 mi
3:51 AM20 °FLight snow. Ice fog.12 mph85%30.32 "Hg1 mi
3:02 AM20 °FLight snow. Ice fog.13 mph89%30.26 "Hg1 mi
2:51 AM20 °FLight snow. Ice fog.12 mph89%30.29 "Hg1 mi
1:58 AM21 °FLight snow. Ice fog.13 mph85%30.23 "Hg1 mi
1:00 AM22 °FLight snow. Overcast.13 mph78%30.21 "Hg2 mi
11:59 PM
Nov 20
22 °FLight snow. Mostly cloudy.8 mph82%30.18 "Hg3 mi
10:59 PM22 °FLight snow. Mostly cloudy.10 mph82%30.16 "Hg3 mi
10:03 PM23 °FLight snow. Overcast.17 mph72%30.14 "Hg1 mi
8:51 PM23 °FLight snow. Overcast.15 mph78%30.15 "Hg9 mi
7:57 PM23 °FLight snow. Overcast.16 mph78%30.11 "Hg2 mi
6:51 PM23 °FLight snow. Partly cloudy.18 mph74%30.13 "Hg9 mi
5:51 PM24 °FLight snow. Overcast.18 mph62%30.10 "Hg9 mi
4:51 PM25 °FLight snow. Mostly cloudy.28 mph58%30.08 "Hg8 mi
3:51 PM25 °FLight snow. Mostly cloudy.18 mph55%30.06 "Hg9 mi
Weather by CustomWeather, © 2014

See weather overviewHow to use our weather pages